| time (UTC) | temp F | wind direction | speed MPH | gust MPH | rain 1hr in | rain 24hr in | rain mn in | humidity % | barometer mb |
| 20260905123012 | 66 | 143 | 1.0 | 5.0 | 0.00 | 0.00 | 0.00 | 100 | 1013.6 |
| 20260905121508 | 66 | 110 | 2.0 | 4.0 | 0.00 | 0.00 | 0.00 | 100 | 1013.4 |
| 20260905120013 | 66 | 71 | 2.0 | 4.0 | 0.00 | 0.00 | 0.00 | 100 | 1013.6 |
| 20260905114700 | 66 | 163 | 2.0 | 4.0 | 0.00 | 0.00 | 0.00 | 100 | 1013.2 |
| 20260905113055 | 66 | 154 | 2.0 | 3.0 | 0.00 | 0.00 | 0.00 | 100 | 1013.2 |
| 20260905111621 | 66 | 27 | 0.0 | 0.0 | 0.00 | 0.00 | 0.00 | 100 | 1013.4 |
| 20260905110053 | 66 | 27 | 0.0 | 0.0 | 0.00 | 0.00 | 0.00 | 100 | 1013.5 |
| 20260905104605 | 67 | 27 | 0.0 | 0.0 | 0.00 | 0.00 | 0.00 | 100 | 1013.2 |
| 20260905103040 | 66 | 27 | 0.0 | 0.0 | 0.00 | 0.00 | 0.00 | 100 | 1013.1 |
| 20260905101535 | 66 | 27 | 0.0 | 0.0 | 0.00 | 0.00 | 0.00 | 100 | 1013.1 |
| 20260905100029 | 66 | 61 | 0.0 | 0.0 | 0.00 | 0.00 | 0.00 | 100 | 1012.7 |
| 20260905094544 | 66 | 61 | 0.0 | 0.0 | 0.00 | 0.00 | 0.00 | 100 | 1012.7 |
| 20260905093020 | 66 | 61 | 0.0 | 0.0 | 0.00 | 0.00 | 0.00 | 100 | 1012.4 |
| 20260905091515 | 66 | 61 | 0.0 | 0.0 | 0.00 | 0.00 | 0.00 | 100 | 1012.2 |
| 20260905090012 | 67 | 62 | 0.0 | 0.0 | 0.00 | 0.00 | 0.00 | 100 | 1012.1 |
| 20260905084506 | 67 | 62 | 0.0 | 0.0 | 0.00 | 0.00 | 0.00 | 100 | 1012.2 |
| 20260905083002 | 67 | 62 | 0.0 | 0.0 | 0.00 | 0.00 | 0.00 | 100 | 1012.4 |
| 20260905081557 | 67 | 62 | 0.0 | 0.0 | 0.00 | 0.00 | 0.00 | 100 | 1012.5 |
| 20260905080107 | 68 | 62 | 0.0 | 0.0 | 0.00 | 0.00 | 0.00 | 100 | 1012.0 |
| 20260905074559 | 68 | 62 | 0.0 | 0.0 | 0.00 | 0.00 | 0.00 | 100 | 1012.0 |
| 20260905073045 | 68 | 62 | 0.0 | 0.0 | 0.00 | 0.00 | 0.00 | 100 | 1012.1 |
| 20260905071546 | 68 | 61 | 0.0 | 0.0 | 0.00 | 0.00 | 0.00 | 100 | 1012.4 |
| 20260905070036 | 68 | 61 | 0.0 | 0.0 | 0.00 | 0.00 | 0.00 | 100 | 1012.5 |
| 20260905064531 | 68 | 61 | 0.0 | 0.0 | 0.00 | 0.00 | 0.00 | 100 | 1012.8 |
| 20260905063027 | 68 | 61 | 0.0 | 0.0 | 0.00 | 0.00 | 0.00 | 100 | 1013.0 |
| 20260905061530 | 68 | 61 | 0.0 | 0.0 | 0.00 | 0.00 | 0.00 | 100 | 1013.1 |
| 20260905060029 | 68 | 61 | 0.0 | 0.0 | 0.00 | 0.00 | 0.00 | 100 | 1013.1 |
| 20260905054521 | 68 | 61 | 0.0 | 0.0 | 0.00 | 0.00 | 0.00 | 100 | 1013.2 |
| 20260905053009 | 68 | 61 | 0.0 | 0.0 | 0.00 | 0.00 | 0.00 | 100 | 1013.2 |
| 20260905051515 | 68 | 61 | 0.0 | 0.0 | 0.00 | 0.00 | 0.00 | 100 | 1013.2 |
| 20260905050105 | 68 | 61 | 0.0 | 0.0 | 0.00 | 0.00 | 0.00 | 100 | 1013.3 |
| 20260905044556 | 68 | 61 | 0.0 | 0.0 | 0.00 | 0.00 | 0.00 | 100 | 1013.3 |
| 20260905043051 | 68 | 61 | 0.0 | 0.0 | 0.00 | 0.00 | 0.00 | 100 | 1013.4 |
| 20260905041547 | 68 | 61 | 0.0 | 0.0 | 0.00 | 0.00 | 0.00 | 100 | 1013.4 |
| 20260905040042 | 68 | 61 | 0.0 | 0.0 | 0.00 | 0.00 | 0.00 | 100 | 1013.2 |
| 20260905034538 | 68 | 55 | 0.0 | 0.0 | 0.00 | 0.00 | 0.00 | 100 | 1013.2 |
| 20260905033033 | 68 | 55 | 0.0 | 0.0 | 0.00 | 0.00 | 0.00 | 100 | 1013.2 |
| 20260905031537 | 68 | 55 | 0.0 | 0.0 | 0.00 | 0.00 | 0.00 | 100 | 1013.3 |
| 20260905030025 | 68 | 55 | 0.0 | 0.0 | 0.00 | 0.00 | 0.00 | 100 | 1013.5 |
| 20260905024538 | 69 | 54 | 0.0 | 0.0 | 0.00 | 0.00 | 0.00 | 100 | 1013.2 |
| 20260905023021 | 69 | 55 | 0.0 | 0.0 | 0.00 | 0.00 | 0.00 | 100 | 1013.4 |
| 20260905021511 | 69 | 55 | 0.0 | 0.0 | 0.00 | 0.00 | 0.00 | 100 | 1013.5 |
| 20260905020008 | 69 | 55 | 0.0 | 0.0 | 0.00 | 0.00 | 0.00 | 100 | 1013.5 |
| 20260905014503 | 69 | 55 | 0.0 | 0.0 | 0.00 | 0.00 | 0.00 | 100 | 1013.5 |
| 20260905013118 | 70 | 55 | 0.0 | 0.0 | 0.00 | 0.00 | 0.00 | 100 | 1013.4 |
| 20260905011605 | 70 | 55 | 0.0 | 0.0 | 0.00 | 0.00 | 0.00 | 100 | 1013.4 |
| 20260905010056 | 71 | 55 | 0.0 | 0.0 | 0.00 | 0.00 | 0.00 | 100 | 1013.4 |
| 20260905004546 | 71 | 55 | 0.0 | 0.0 | 0.00 | 0.00 | 0.00 | 100 | 1013.2 |
| 20260905003041 | 71 | 55 | 0.0 | 0.0 | 0.00 | 0.00 | 0.00 | 100 | 1013.3 |
| 20260905001537 | 72 | 55 | 0.0 | 0.0 | 0.00 | 0.00 | 0.00 | 100 | 1013.3 |
| 20260905000034 | 72 | 55 | 0.0 | 2.0 | 0.00 | 0.00 | 0.00 | 100 | 1013.5 |
| 20260904234532 | 72 | 55 | 0.0 | 0.0 | 0.00 | 0.00 | 0.00 | 100 | 1013.7 |
| 20260904233023 | 72 | 54 | 0.0 | 2.0 | 0.00 | 0.00 | 0.00 | 100 | 1013.5 |
| 20260904231519 | 72 | 51 | 0.0 | 0.0 | 0.00 | 0.00 | 0.00 | 100 | 1013.6 |
| 20260904230015 | 72 | 51 | 0.0 | 1.0 | 0.00 | 0.00 | 0.00 | 100 | 1013.4 |
| 20260904224509 | 73 | 84 | 1.0 | 5.0 | 0.00 | 0.00 | 0.00 | 100 | 1013.3 |
| 20260904223006 | 73 | 360 | 0.0 | 5.0 | 0.00 | 0.00 | 0.00 | 100 | 1013.2 |
| 20260904221501 | 74 | 346 | 2.0 | 5.0 | 0.00 | 0.00 | 0.00 | 100 | 1012.9 |
| 20260904220058 | 74 | 360 | 1.0 | 3.0 | 0.00 | 0.00 | 0.00 | 100 | 1012.5 |
| 20260904214554 | 74 | 21 | 1.0 | 5.0 | 0.00 | 0.00 | 0.00 | 100 | 1012.3 |
| 20260904213051 | 74 | 24 | 2.0 | 5.0 | 0.00 | 0.00 | 0.00 | 100 | 1012.1 |
| 20260904211544 | 75 | 55 | 0.0 | 3.0 | 0.00 | 0.00 | 0.00 | 100 | 1012.1 |
| 20260904210040 | 75 | 355 | 1.0 | 4.0 | 0.00 | 0.00 | 0.00 | 100 | 1012.1 |
| 20260904204535 | 74 | 20 | 0.0 | 4.0 | 0.00 | 0.00 | 0.00 | 100 | 1012.2 |
| 20260904203031 | 75 | 115 | 2.0 | 5.0 | 0.00 | 0.00 | 0.00 | 100 | 1012.4 |
| 20260904201538 | 75 | 355 | 0.0 | 4.0 | 0.00 | 0.00 | 0.00 | 100 | 1012.6 |
| 20260904200039 | 75 | 332 | 1.0 | 4.0 | 0.00 | 0.00 | 0.00 | 100 | 1012.7 |
| 20260904194518 | 75 | 206 | 0.0 | 3.0 | 0.00 | 0.00 | 0.00 | 100 | 1012.8 |
| 20260904193013 | 75 | 132 | 0.0 | 2.0 | 0.00 | 0.00 | 0.00 | 100 | 1013.2 |
| 20260904191513 | 74 | 246 | 0.0 | 3.0 | 0.00 | 0.00 | 0.00 | 100 | 1013.5 |
| 20260904190005 | 74 | 300 | 0.0 | 3.0 | 0.00 | 0.00 | 0.00 | 100 | 1013.5 |
| 20260904184606 | 73 | 338 | 1.0 | 4.0 | 0.00 | 0.00 | 0.00 | 100 | 1013.7 |
| 20260904183056 | 73 | 345 | 0.0 | 2.0 | 0.00 | 0.00 | 0.00 | 100 | 1013.9 |
| 20260904181551 | 73 | 355 | 1.0 | 3.0 | 0.00 | 0.00 | 0.00 | 100 | 1014.1 |
| 20260904180046 | 73 | 291 | 0.0 | 3.0 | 0.00 | 0.00 | 0.00 | 100 | 1014.2 |
| 20260904174547 | 73 | 286 | 1.0 | 3.0 | 0.00 | 0.00 | 0.00 | 100 | 1014.5 |
| 20260904173038 | 73 | 298 | 1.0 | 6.0 | 0.00 | 0.00 | 0.00 | 100 | 1014.9 |
| 20260904171603 | 72 | 360 | 2.0 | 5.0 | 0.00 | 0.00 | 0.00 | 100 | 1015.2 |
| 20260904170029 | 72 | 322 | 1.0 | 3.0 | 0.00 | 0.00 | 0.00 | 100 | 1015.3 |
| 20260904164525 | 72 | 288 | 0.0 | 3.0 | 0.00 | 0.00 | 0.00 | 100 | 1015.2 |
| 20260904163038 | 72 | 313 | 1.0 | 5.0 | 0.00 | 0.00 | 0.00 | 100 | 1015.4 |
| 20260904161515 | 72 | 292 | 0.0 | 4.0 | 0.00 | 0.00 | 0.00 | 100 | 1015.5 |
| 20260904160012 | 72 | 301 | 1.0 | 4.0 | 0.00 | 0.00 | 0.00 | 100 | 1015.6 |
| 20260904154508 | 71 | 317 | 0.0 | 4.0 | 0.00 | 0.00 | 0.00 | 100 | 1015.5 |
| 20260904153006 | 71 | 309 | 0.0 | 3.0 | 0.00 | 0.00 | 0.00 | 100 | 1015.6 |
| 20260904151559 | 71 | 290 | 1.0 | 4.0 | 0.00 | 0.00 | 0.00 | 100 | 1015.7 |
| 20260904150055 | 71 | 298 | 1.0 | 4.0 | 0.00 | 0.00 | 0.00 | 100 | 1015.8 |
| 20260904144601 | 71 | 281 | 1.0 | 4.0 | 0.00 | 0.00 | 0.00 | 100 | 1015.7 |
| 20260904143104 | 70 | 261 | 0.0 | 4.0 | 0.00 | 0.00 | 0.00 | 100 | 1015.4 |
| 20260904141542 | 70 | 248 | 0.0 | 0.0 | 0.00 | 0.00 | 0.00 | 100 | 1015.1 |
| 20260904140042 | 70 | 247 | 0.0 | 0.0 | 0.00 | 0.00 | 0.00 | 100 | 1014.8 |
| 20260904134533 | 70 | 247 | 0.0 | 4.0 | 0.00 | 0.00 | 0.00 | 100 | 1014.5 |
| 20260904133028 | 70 | 277 | 1.0 | 5.0 | 0.00 | 0.00 | 0.00 | 100 | 1014.7 |
| 20260904131523 | 70 | 289 | 2.0 | 5.0 | 0.00 | 0.00 | 0.00 | 100 | 1014.6 |
| 20260904130121 | 69 | 254 | 1.0 | 4.0 | 0.00 | 0.00 | 0.00 | 100 | 1014.6 |
| 20260904124516 | 69 | 242 | 1.0 | 3.0 | 0.00 | 0.00 | 0.00 | 100 | 1014.7 |